sat.trackr.live / text

‹ back to catalog

STARLINK-35275

NORAD 65756 · 2025-216Y

PAYLOAD ACTIVE UNKNOWN

§ Identity

Operator
Country
US
Launch date
2025-09-25
Launch site
AFETR
Launch vehicle
Mass (kg)
RCS (m²)

Purposes: comms

External: N2YO · Heavens-Above · Gunter

§ Orbital elements

Epoch: 2026-05-24T20:35:32.412192Z

Period
94.10 min
Inclination
53.1622°
Eccentricity
0.0000939
Mean motion
15.30214639 rev/d
Perigee alt
474.5 km
Apogee alt
475.8 km
Semi-major
6,853.3 km
B*
7.5043e-4
RAAN
339.2102°
Arg perigee
88.7794°
Mean anomaly
271.3315°
Rev number
3,820

§ Raw data

STARLINK-352751 65756U 25216Y   26144.85801403  .00021942  00000+0  75043-3 0  99902 65756  53.1622 339.2102 0000939  88.7794 271.3315 15.30214639 38203

JSON: /api/v1/satellites/65756 · /tle

For live sub-satellite position, see the globe view (requires WebGL).

§ Visibility from observer

Set your observer location to see the next 7 days of passes ≥ 10°. The values pass through the URL so the page stays shareable.

No JS? Fill the form by hand. The geolocation button needs JavaScript.